When you browse on this site, cookies collect data to enhance your experience and personalize the content and advertising you see.
Visit our Privacy Policy to learn more. By continuing to use the site, you agree to this use of cookies and data.
  • în România
  • Lista ţărilor
  • Pe 7 zile
  • Temperatura apei
  • Hartă satelitară
  • Meteo pe hartă
  • Widget-uri
  • user-avatar
    Intrare

    Meteo pe oră la Korobino

    Astăzi, 18 Ianuarie, Vineri

    Timp Temperatura Precipitaţii Vânt Presiune Umiditate
    00:00 -2°C° 0.1 mm 6 m/s 725 mmHg 86%
    01:00 -2°C° 0.1 mm 6 m/s 725 mmHg 86%
    02:00 -1°C° 0.1 mm 5 m/s 726 mmHg 86%
    03:00 -1°C° 0.1 mm 5 m/s 726 mmHg 86%
    04:00 -1°C° 0.1 mm 5 m/s 727 mmHg 86%
    05:00 -2°C° 0.1 mm 5 m/s 727 mmHg 86%
    06:00 -2°C° 0.1 mm 4 m/s 728 mmHg 87%
    07:00 -3°C° 0.1 mm 4 m/s 728 mmHg 88%
    08:00 -3°C° 0.1 mm 4 m/s 729 mmHg 89%
    09:00 -4°C° 0 mm 4 m/s 729 mmHg 88%
    10:00 -4°C° 0 mm 3 m/s 730 mmHg 88%
    11:00 -4°C° 0 mm 3 m/s 731 mmHg 88%
    12:00 -4°C° 0.1 mm 2 m/s 731 mmHg 89%
    13:00 -4°C° 0.1 mm 2 m/s 731 mmHg 90%
    14:00 -2°C° 0.1 mm 1 m/s 731 mmHg 92%
    15:00 -4°C° 0.6 mm 2 m/s 731 mmHg 93%
    16:00 -5°C° 0.6 mm 2 m/s 730 mmHg 95%
    17:00 -6°C° 0.6 mm 2 m/s 730 mmHg 96%
    18:00 -6°C° 1 mm 2 m/s 730 mmHg 96%
    19:00 -8°C° 1 mm 3 m/s 730 mmHg 95%
    20:00 -8°C° 1 mm 3 m/s 730 mmHg 95%
    21:00 -9°C° 0.1 mm 3 m/s 731 mmHg 94%
    22:00 -8°C° 0.1 mm 2 m/s 731 mmHg 93%
    23:00 -8°C° 0.1 mm 2 m/s 732 mmHg 92%

    Mâine, 19 Ianuarie, Sâmbătă

    Timp Temperatura Precipitaţii Vânt Presiune Umiditate
    00:00 -9°C° 0 mm 2 m/s 732 mmHg 92%
    01:00 -12°C° 0 mm 3 m/s 733 mmHg 93%
    02:00 -12°C° 0 mm 3 m/s 734 mmHg 93%
    03:00 -13°C° 0 mm 3 m/s 734 mmHg 93%
    04:00 -13°C° 0 mm 3 m/s 734 mmHg 94%
    05:00 -13°C° 0 mm 3 m/s 735 mmHg 94%
    06:00 -12°C° 0 mm 3 m/s 735 mmHg 93%
    07:00 -12°C° 0 mm 4 m/s 735 mmHg 92%
    08:00 -11°C° 0 mm 4 m/s 736 mmHg 91%
    09:00 -10°C° 0 mm 4 m/s 736 mmHg 90%
    10:00 -9°C° 0 mm 4 m/s 736 mmHg 88%
    11:00 -8°C° 0 mm 5 m/s 737 mmHg 87%
    12:00 -8°C° 0.1 mm 4 m/s 737 mmHg 87%
    13:00 -8°C° 0.1 mm 4 m/s 737 mmHg 86%
    14:00 -7°C° 0.1 mm 4 m/s 737 mmHg 86%
    15:00 -8°C° 0.3 mm 4 m/s 738 mmHg 88%
    16:00 -8°C° 0.3 mm 4 m/s 738 mmHg 89%
    17:00 -7°C° 0.3 mm 3 m/s 738 mmHg 91%
    18:00 -7°C° 0.1 mm 3 m/s 739 mmHg 91%
    19:00 -8°C° 0.1 mm 3 m/s 739 mmHg 91%
    20:00 -8°C° 0.1 mm 3 m/s 739 mmHg 92%
    21:00 -8°C° 0 mm 3 m/s 739 mmHg 91%
    22:00 -8°C° 0 mm 3 m/s 740 mmHg 91%
    23:00 -8°C° 0 mm 3 m/s 740 mmHg 91%

    Poimâine, 20 Ianuarie, Duminică

    Timp Temperatura Precipitaţii Vânt Presiune Umiditate
    00:00 -8°C° 0 mm 3 m/s 740 mmHg 90%
    01:00 -9°C° 0 mm 4 m/s 740 mmHg 90%
    02:00 -9°C° 0 mm 4 m/s 740 mmHg 90%
    03:00 -10°C° 0 mm 4 m/s 740 mmHg 90%
    04:00 -10°C° 0 mm 4 m/s 739 mmHg 91%
    05:00 -11°C° 0 mm 5 m/s 739 mmHg 91%
    06:00 -10°C° 0 mm 5 m/s 738 mmHg 89%
    07:00 -8°C° 0 mm 5 m/s 738 mmHg 88%
    08:00 -7°C° 0 mm 5 m/s 738 mmHg 86%
    09:00 -6°C° 0.1 mm 5 m/s 738 mmHg 86%
    10:00 -6°C° 0.1 mm 6 m/s 737 mmHg 86%
    11:00 -5°C° 0.1 mm 6 m/s 737 mmHg 86%
    12:00 -5°C° 0.3 mm 6 m/s 737 mmHg 87%
    13:00 -5°C° 0.3 mm 5 m/s 736 mmHg 89%
    14:00 -5°C° 0.3 mm 5 m/s 736 mmHg 90%
    15:00 -5°C° 0.3 mm 4 m/s 736 mmHg 90%
    16:00 -6°C° 0.3 mm 3 m/s 736 mmHg 90%
    17:00 -7°C° 0.3 mm 3 m/s 737 mmHg 90%
    18:00 -8°C° 0 mm 3 m/s 737 mmHg 90%
    19:00 -9°C° 0 mm 3 m/s 737 mmHg 90%
    20:00 -9°C° 0 mm 3 m/s 738 mmHg 90%
    21:00 -10°C° 0 mm 2 m/s 738 mmHg 91%
    22:00 -13°C° 0 mm 2 m/s 738 mmHg 92%
    23:00 -15°C° 0 mm 2 m/s 738 mmHg 94%

    21 Ianuarie, Luni

    Timp Temperatura Precipitaţii Vânt Presiune Umiditate
    00:00 -15°C° 0 mm 2 m/s 738 mmHg 95%
    01:00 -16°C° 0 mm 2 m/s 739 mmHg 96%
    02:00 -16°C° 0 mm 2 m/s 739 mmHg 97%
    03:00 -16°C° 0 mm 2 m/s 739 mmHg 97%
    04:00 -16°C° 0 mm 2 m/s 739 mmHg 97%
    05:00 -16°C° 0 mm 2 m/s 738 mmHg 97%
    06:00 -16°C° 0 mm 2 m/s 739 mmHg 96%
    07:00 -16°C° 0 mm 2 m/s 739 mmHg 95%
    08:00 -16°C° 0 mm 3 m/s 739 mmHg 95%
    09:00 -16°C° 0 mm 3 m/s 739 mmHg 94%
    10:00 -15°C° 0 mm 3 m/s 739 mmHg 93%
    11:00 -14°C° 0 mm 3 m/s 739 mmHg 92%
    12:00 -14°C° 0 mm 3 m/s 739 mmHg 90%
    13:00 -14°C° 0 mm 3 m/s 739 mmHg 89%
    14:00 -13°C° 0 mm 3 m/s 739 mmHg 87%
    15:00 -14°C° 0.1 mm 3 m/s 740 mmHg 89%
    16:00 -14°C° 0.1 mm 3 m/s 740 mmHg 90%
    17:00 -14°C° 0.1 mm 2 m/s 740 mmHg 92%
    18:00 -15°C° 0 mm 2 m/s 740 mmHg 92%
    19:00 -15°C° 0 mm 2 m/s 741 mmHg 93%
    20:00 -16°C° 0 mm 2 m/s 741 mmHg 94%
    21:00 -16°C° 0 mm 2 m/s 741 mmHg 94%
    22:00 -17°C° 0 mm 2 m/s 741 mmHg 94%
    23:00 -17°C° 0 mm 2 m/s 742 mmHg 94%

    22 Ianuarie, Marţi

    Timp Temperatura Precipitaţii Vânt Presiune Umiditate
    00:00 -18°C° 0 mm 2 m/s 742 mmHg 94%
    01:00 -18°C° 0 mm 2 m/s 742 mmHg 95%
    02:00 -18°C° 0 mm 2 m/s 743 mmHg 95%
    03:00 -19°C° 0 mm 2 m/s 743 mmHg 96%
    04:00 -19°C° 0 mm 2 m/s 743 mmHg 97%
    05:00 -20°C° 0 mm 2 m/s 743 mmHg 97%
    06:00 -20°C° 0 mm 2 m/s 743 mmHg 98%
    07:00 -20°C° 0 mm 2 m/s 743 mmHg 98%
    08:00 -20°C° 0 mm 2 m/s 743 mmHg 98%
    09:00 -19°C° 0 mm 2 m/s 742 mmHg 97%
    10:00 -16°C° 0 mm 1 m/s 742 mmHg 96%
    11:00 -15°C° 0 mm 1 m/s 742 mmHg 95%
    12:00 -14°C° 0 mm 1 m/s 742 mmHg 95%
    13:00 -13°C° 0 mm 1 m/s 742 mmHg 95%
    14:00 -13°C° 0 mm 1 m/s 741 mmHg 95%
    15:00 -13°C° 0.2 mm 1 m/s 741 mmHg 96%
    16:00 -13°C° 0.2 mm 1 m/s 741 mmHg 97%
    17:00 -13°C° 0.2 mm 1 m/s 741 mmHg 97%
    18:00 -14°C° 0.1 mm 1 m/s 741 mmHg 97%
    19:00 -14°C° 0.1 mm 1 m/s 740 mmHg 98%
    20:00 -15°C° 0.1 mm 1 m/s 740 mmHg 98%
    21:00 -15°C° 0 mm 1 m/s 740 mmHg 98%
    22:00 -16°C° 0 mm 1 m/s 741 mmHg 98%
    23:00 -16°C° 0 mm 1 m/s 741 mmHg 98%

    23 Ianuarie, Miercuri

    Timp Temperatura Precipitaţii Vânt Presiune Umiditate
    00:00 -17°C° 0 mm 1 m/s 741 mmHg 98%
    01:00 -17°C° 0 mm 1 m/s 741 mmHg 98%
    02:00 -18°C° 0 mm 1 m/s 741 mmHg 98%
    03:00 -18°C° 0 mm 1 m/s 741 mmHg 99%
    04:00 -19°C° 0 mm 1 m/s 741 mmHg 99%
    05:00 -19°C° 0 mm 1 m/s 741 mmHg 99%
    06:00 -19°C° 0 mm 1 m/s 742 mmHg 99%
    07:00 -20°C° 0 mm 1 m/s 742 mmHg 99%
    08:00 -20°C° 0 mm 1 m/s 742 mmHg 99%
    09:00 -19°C° 0 mm 1 m/s 742 mmHg 98%
    10:00 -18°C° 0 mm 1 m/s 742 mmHg 98%
    11:00 -17°C° 0 mm 1 m/s 742 mmHg 97%
    12:00 -16°C° 0 mm 1 m/s 742 mmHg 96%
    13:00 -15°C° 0 mm 1 m/s 742 mmHg 96%
    14:00 -15°C° 0 mm 1 m/s 742 mmHg 96%
    15:00 -15°C° 0.1 mm 1 m/s 742 mmHg 96%
    16:00 -16°C° 0.1 mm 1 m/s 743 mmHg 97%
    17:00 -16°C° 0.1 mm 1 m/s 743 mmHg 97%
    18:00 -16°C° 0.1 mm 1 m/s 743 mmHg 97%
    19:00 -16°C° 0.1 mm 1 m/s 743 mmHg 97%
    20:00 -16°C° 0.1 mm 1 m/s 743 mmHg 97%
    21:00 -17°C° 0 mm 1 m/s 743 mmHg 98%
    22:00 -17°C° 0 mm 1 m/s 743 mmHg 98%
    23:00 -18°C° 0 mm 1 m/s 744 mmHg 98%
    Arată mai mult